Regional Weather Roundup
Issued by NWS Sioux Falls, SD

Home | Current Version | Previous Version | Text Only | Print | Product List | Glossary On
Versions: 1 2 3 4 5 6 7 8 9 10 11 12 13 14 15 16 17 18 19 20 21 22 23 24 25 26 27 28 29 30 31 32 33 34 35 36 37 38 39 40 41 42 43 44 45 46 47 48 49 50
000
ASUS43 KFSD 212310
RWRFSD

WEATHER ROUNDUP FOR SE SOUTH DAKOTA/SW MINNESOTA/NW IOWA
NATIONAL WEATHER SERVICE SIOUX FALLS SD
600 PM CDT TUE OCT 21 2014

NOTE: "FAIR" INDICATES FEW OR NO CLOUDS BELOW 12,000 FEET WITH NO
SIGNIFICANT WEATHER AND OR OBSTRUCTIONS TO VISIBILITY.


SDZ038>040-050-052>070-220000-
SOUTHEAST SOUTH DAKOTA

CITY           SKY/WX    TMP DP  RH WIND       PRES   REMARKS
CHAMBERLAIN    CLEAR     75  36  23 S10G23    29.83S
HURON          CLEAR     77  36  22 S13G29    29.86R
MADISON        FAIR      68  45  42 S15G21    29.95F
MITCHELL       CLEAR     77  39  25 S18G26    29.89S
SIOUX FALLS    CLEAR     70  44  39 SE13      29.97S
WINNER         FAIR      77  32  19 S20       29.83S
YANKTON        CLEAR     73  45  35 S15       29.94S
$$

MNZ071-072-080-081-089-090-097-098-220000-
SOUTHWEST MINNESOTA

CITY           SKY/WX    TMP DP  RH WIND       PRES   REMARKS
FAIRMONT       CLEAR     61  37  41 SE14      30.09S
JACKSON        CLEAR     63  37  39 SE9       30.07S
LUVERNE        CLEAR     72  39  30 S10       30.00S
MARSHALL       CLEAR     66  41  39 SE15      29.99S
MONTEVIDEO     CLEAR     64  41  42 S15       30.01S
PIPESTONE      CLEAR     70  39  32 S13       29.99F
REDWOOD FALLS  CLEAR     64  40  41 SE16      30.04S
TRACY          CLEAR     66  42  41 SE15G21   30.02S
WINDOM         CLEAR     64  39  39 SE10      30.06S
WORTHINGTON    CLEAR     64  39  39 SE12      30.04F
$$

IAZ001>003-012>014-020>022-031-032-NEZ013-014-SDZ071-220000-
NORTHWEST IOWA

CITY           SKY/WX    TMP DP  RH WIND       PRES   REMARKS
CHEROKEE       CLEAR     67  42  39 SE9       30.04S
DENISON        CLEAR     68  41  37 SE10      30.03S
ESTHERVILLE    CLEAR     62  42  47 SE14      30.08S
LE MARS        CLEAR     72  43  35 S10       30.01S
ORANGE CITY    CLEAR     73  37  27 S6        30.02S
SHELDON        CLEAR     68  43  40 SE12      30.01S
SIOUX CITY     CLEAR     72  42  34 SE9       30.01S
SPENCER        CLEAR     64  43  46 SE12      30.06S
STORM LAKE     CLEAR     64  41  42 SE12      30.07S
$$

ABBREVIATIONS USED IN REMARKS
   TC - TEMPERATURE IN CELSIUS
  WCI - WIND CHILL INDEX
   HX - HEAT INDEX
  VSB - VISIBILITY




USA.gov is the U.S. government's official web portal to all federal, state and local government web resources and services.